This demonstration page uses our WeatherBlox Daily Observations layout. Learn more.

Left ArrowRight Arrow

Hourly Observations for February 21, 2017

Temp ( °F °C ) Dew Point ( °F °C ) Humidity (%) Winds ( mph kmh ) Pressure ( in mb ) Visibility ( mi km ) Precip ( " mm )
12:53 am 00:53 Clear 45 7.2 27 -2.8 49 49 WNW 9 15 30.06 1018 10 16 0.00 0.00
1:53 am 01:53 Clear 49 9.4 27 -2.8 43 43 WNW 8 13 30.05 1018 10 16 0.00 0.00
2:53 am 02:53 Clear 42 5.6 26 -3.3 53 53 NE 5 7 30.07 1018 10 16 0.00 0.00
3:53 am 03:53 Clear 38 3.3 25 -3.9 60 60 Calm 30.08 1019 10 16 0.00 0.00
4:53 am 04:53 Clear 38 3.3 24 -4.4 57 57 Calm 30.08 1019 10 16 0.00 0.00
5:53 am 05:53 Clear 38 3.3 25 -3.9 60 60 Calm 30.08 1019 10 16 0.00 0.00
6:53 am 06:53 Clear 36 2.2 25 -3.9 64 64 NNW 3 6 30.10 1019 10 16 0.00 0.00
7:53 am 07:53 Sunny 36 2.2 25 -3.9 64 64 SSW 6 9 30.12 1020 10 16 0.00 0.00
8:53 am 08:53 Sunny 48 8.9 29 -1.7 48 48 Calm 30.13 1020 8 13 0.00 0.00
9:53 am 09:53 Sunny 57 13.9 29 -1.7 34 34 Calm 30.12 1020 10 16 0.00 0.00
10:53 am 10:53 Sunny 67 19.4 29 -1.7 24 24 W 9 15 30.10 1019 10 16 0.00 0.00
11:53 am 11:53 Sunny 72 22.2 29 -1.7 20 20 WSW 9 15 30.08 1019 10 16 0.00 0.00
12:53 pm 12:53 Sunny 77 25 25 -3.9 14 14 W 10 17 30.03 1017 10 16 0.00 0.00
1:53 pm 13:53 Sunny 80 26.7 25 -3.9 13 13 W 10 17 29.98 1015 10 16 0.00 0.00
2:53 pm 14:53 Sunny 81 27.2 26 -3.3 13 13 WNW 9 15 29.96 1015 10 16 0.00 0.00
3:53 pm 15:53 Sunny 82 27.8 26 -3.3 13 13 WNW 12 19 29.95 1014 10 16 0.00 0.00
4:53 pm 16:53 Sunny 83 28.3 26 -3.3 12 12 WNW 8 13 29.93 1014 10 16 0.00 0.00
5:53 pm 17:53 Sunny 83 28.3 26 -3.3 12 12 W 9 15 29.93 1014 10 16 0.00 0.00
6:53 pm 18:53 Clear 75 23.9 27 -2.8 17 17 WSW 7 11 29.95 1014 10 16 0.00 0.00
7:53 pm 19:53 Clear 64 17.8 28 -2.2 26 26 WSW 12 19 29.98 1015 10 16 0.00 0.00
8:53 pm 20:53 Clear 64 17.8 30 -1.1 28 28 undefined N/A 29.97 1015 10 16 0.00 0.03
9:53 pm 21:53 Clear 64 17.8 32 0 30 30 WSW 13 20 29.96 1015 10 16 0.00 0.00
10:53 pm 22:53 Clear 59 15 32 0 36 36 W 13 20 29.96 1015 10 16 0.00 0.00
11:53 pm 23:53 Clear 59 15 32 0 36 36 W 10 17 29.94 1014 10 16 0.00 0.00

Powered by AerisWeather